Location: D�derode
(51.8092°N, 10.1065°E)
Time: 05:53:51
(UTC+00:00)

COSMOS 2428 - Pass Details

Date: 01 December 2020
Orbit: 848 x 855 km, 70.9° (Epoch: 23 January)

Event Time Altitude Azimuth Distance (km) Brightness Sun altitude
Rises 15:43:37 0° 228° (SW) 3,418 8.0 -4.9°
Reaches altitude 10° 15:46:09 10° 234° (SW) 2,485 7.0 -5.2°
Maximum altitude 15:51:40 49° 309° (NW) 1,093 3.5 -6.0°
Drops below altitude 10° 15:57:14 10° 24° (NNE) 2,495 4.7 -6.7°
Enters shadow 15:59:06 - 29° (NNE) 3,177 5.2 -7.0°
